Back to catalog

STARLINK-3270

AliveCommunicationsVLEO
NORAD 50199·PAYLOAD·🇺🇸 United States

Launched Dec 18, 2021 from Vandenberg Space Force Base

Loading…

Next Passes (next 24 hours)

TLE

FreshSource: CelesTrak SupGP

Epoch: Sep 14, 2026, 21:18 UTC

1 50199C 21125AV  26257.88798611  .00001854  00000+0  53035-4 0  2579
2 50199  53.1581  99.8998 0001351  80.2671 246.3247 15.35399142    16

Track STARLINK-3270 in real time with AllMySat

Download on the App Store